Location: Unspecified
(45.9570°N, 0.0000°E)
Time: 10:34:56
(UTC+00:00)

ISS - Visible Passes

Search period start: 20 May 2019 00:00
Search period end: 30 May 2019 00:00
Orbit: 407 x 410 km, 51.6° (Epoch: 20 May)

Date Brightness Start Highest point End Pass type
(mag) Time Alt. Az. Time Alt. Az. Time Alt. Az.
20 May -2.5 00:50:55 10° NW 00:54:04 40° NNE 00:57:14 10° E visible
20 May -3.6 02:27:31 10° WNW 02:30:43 47° SW 02:33:54 10° SE visible
20 May -3.9 20:45:47 10° WSW 20:49:05 85° SSE 20:52:25 10° ENE visible
20 May -2.0 22:22:54 10° WNW 22:25:56 32° N 22:28:58 10° ENE visible
21 May -2.1 00:00:01 10° WNW 00:03:03 33° N 00:04:30 22° ENE visible
21 May -1.4 01:36:33 10° WNW 01:37:06 14° WNW 01:37:06 14° WNW visible
21 May -2.3 21:31:45 10° W 21:34:53 39° NNW 21:38:02 10° NE visible
21 May -1.8 23:09:01 10° WNW 23:11:59 30° N 23:14:14 15° ENE visible
22 May -1.7 00:45:39 10° WNW 00:46:55 21° NW 00:46:55 21° NW visible
22 May -2.9 20:40:38 10° W 20:43:52 52° NNW 20:47:07 10° ENE visible
22 May -1.8 22:17:57 10° WNW 22:20:54 29° N 22:23:51 10° ENE visible
22 May -2.4 23:54:44 10° WNW 23:57:15 39° NNW 23:57:15 39° NNW visible
23 May -1.8 21:26:49 10° WNW 21:29:48 30° N 21:32:48 10° ENE visible
23 May -2.3 23:03:49 10° NW 23:06:55 36° NNE 23:07:45 31° NE visible
24 May -0.9 00:40:22 10° WNW 00:40:27 11° WNW 00:40:27 11° WNW visible
24 May -2.1 20:35:39 10° W 20:38:43 35° NNW 20:41:48 10° NE visible
24 May -2.0 22:12:49 10° WNW 22:15:50 31° N 22:18:18 13° ENE visible
24 May -2.0 23:49:24 10° WNW 23:51:01 26° WNW 23:51:01 26° WNW visible
25 May -1.8 21:21:46 10° WNW 21:24:43 29° N 21:27:40 10° ENE visible
25 May -3.2 22:58:27 10° WNW 23:01:37 55° NNE 23:01:37 55° NNE visible
26 May -1.8 20:30:37 10° WNW 20:33:35 29° N 20:36:32 10° ENE visible
26 May -2.6 22:07:30 10° NW 22:10:40 41° NNE 22:12:14 24° ENE visible
26 May -1.4 23:44:06 10° WNW 23:44:57 16° WNW 23:44:57 16° WNW visible
27 May -2.2 21:16:31 10° WNW 21:19:34 33° N 21:22:36 10° ENE visible
27 May -3.1 22:53:04 10° WNW 22:55:36 49° WNW 22:55:36 49° WNW visible
28 May -2.0 20:25:27 10° WNW 20:28:25 30° N 20:31:23 10° ENE visible
28 May -3.6 22:02:04 10° WNW 22:05:22 67° NNE 22:06:15 43° E visible
29 May -2.9 21:11:04 10° WNW 21:14:18 47° NNE 21:16:57 14° E visible
29 May -2.2 22:47:45 10° WNW 22:49:39 26° W 22:49:39 26° W visible
